 day,  time,  air_temp(C),  RH(%),  ground_temp10cm(C),  ground_temp20cm(C),  ground_temp40cm(C),  precipitation(mm/h),  Solar_Radiation(MJ/m2h),  lack, 
 02/10/01, 01:00,  12.0,  92,  14.6,  15.4,  15.9,   0.0,  0.00, 
 02/10/01, 02:00,  11.4,  96,  14.6,  15.4,  15.9,   1.0,  0.00, 
 02/10/01, 03:00,  11.3,  96,  14.5,  15.3,  15.9,   0.5,  0.00, 
 02/10/01, 04:00,  11.1,  99,  14.4,  15.3,  15.9,   0.5,  0.00, 
 02/10/01, 05:00,  11.0,  99,  14.3,  15.2,  15.9,   0.0,  0.00, 
 02/10/01, 06:00,  10.8,  99,  14.3,  15.2,  15.9,   0.0,  0.00, 
 02/10/01, 07:00,  10.9,  99,  14.2,  15.1,  15.9,   0.0,  0.00, 
 02/10/01, 08:00,  11.2,  99,  14.2,  15.1,  15.9,   0.5,  0.05, 
 02/10/01, 09:00,  11.9,  99,  14.2,  15.1,  15.9,   2.5,  0.14, 
 02/10/01, 10:00,  12.0,  99,  14.2,  15.0,  15.8,   1.5,  0.24, 
 02/10/01, 11:00,  11.9,  99,  14.2,  15.0,  15.8,   1.5,  0.33, 
 02/10/01, 12:00,  12.5,  99,  14.3,  14.9,  15.8,   2.0,  0.38, 
 02/10/01, 13:00,  12.2,  99,  14.4,  14.9,  15.8,   4.5,  0.25, 
 02/10/01, 14:00,  11.7,  99,  14.4,  14.8,  15.8,   5.5,  0.13, 
 02/10/01, 15:00,  12.1,  99,  14.3,  14.8,  15.8,   5.5,  0.03, 
 02/10/01, 16:00,  12.1,  99,  14.2,  14.8,  15.7,   3.5,  0.03, 
 02/10/01, 17:00,  11.5,  99,  14.1,  14.7,  15.7,   7.5,  0.00, 
 02/10/01, 18:00,  12.0,  99,  13.9,  14.7,  15.7,  10.5,  0.00, 
 02/10/01, 19:00,  12.1,  99,  13.7,  14.6,  15.6,   8.0,  0.00, 
 02/10/01, 20:00,  11.7,  99,  13.5,  14.5,  15.6,   4.5,  0.00, 
 02/10/01, 21:00,  12.2,  91,  13.4,  14.4,  15.5,   4.0,  0.00, 
 02/10/01, 22:00,  11.5,  99,  13.4,  14.3,  15.5,   0.0,  0.00, 
 02/10/01, 23:00,  11.7,  99,  13.4,  14.3,  15.6,   0.5,  0.00, 
 02/10/02, 00:00,  11.7,  99,  13.4,  14.2,  15.5,   0.0,  0.00, 
 02/10/02, 01:00,  11.7,  99,  13.4,  14.2,  15.5,   0.5,  0.00, 
 02/10/02, 02:00,  11.7,  99,  13.4,  14.2,  15.4,   0.0,  0.00, 
 02/10/02, 03:00,  11.5,  99,  13.4,  14.2,  15.4,   2.0,  0.00, 
 02/10/02, 04:00,  10.8,  99,  13.5,  14.1,  15.5,   4.0,  0.00, 
 02/10/02, 05:00,  10.8,  98,  13.3,  14.1,  15.4,   0.0,  0.00, 
 02/10/02, 06:00,  10.2,  99,  13.3,  14.1,  15.3,   0.0,  0.00, 
 02/10/02, 07:00,  10.0,  98,  13.2,  14.1,  15.3,   0.0,  0.12, 
 02/10/02, 08:00,  12.5,  84,  13.1,  14.0,  15.3,   0.0,  0.98, 
 02/10/02, 09:00,  14.2,  84,  13.2,  14.0,  15.3,   0.0,  1.69, 
 02/10/02, 10:00,  14.2,  81,  13.4,  14.0,  15.3,   0.5,  1.85, 
 02/10/02, 11:00,  16.1,  70,  13.7,  14.0,  15.4,   0.0,  1.98, 
 02/10/02, 12:00,  15.5,  77,  14.5,  14.0,  15.4,   0.0,  1.46, 
 02/10/02, 13:00,  16.7,  64,  15.0,  14.0,  15.3,   0.0,  2.31, 
 02/10/02, 14:00,  17.2,  65,  15.6,  14.1,  15.3,   0.0,  2.30, 
 02/10/02, 15:00,  17.0,  64,  15.9,  14.4,  15.3,   0.0,  1.75, 
 02/10/02, 16:00,  15.5,  70,  16.0,  14.5,  15.3,   0.0,  1.21, 
 02/10/02, 17:00,  14.0,  81,  15.9,  14.6,  15.3,   0.0,  0.57, 
 02/10/02, 18:00,  11.7,  94,  15.8,  14.7,  15.3,   0.0,  0.05, 
 02/10/02, 19:00,  11.6,  96,  15.5,  14.8,  15.3,   0.0,  0.00, 
 02/10/02, 20:00,  11.8,  96,  15.2,  14.9,  15.3,   0.0,  0.00, 
 02/10/02, 21:00,  11.5,  96,  15.0,  14.9,  15.3,   0.0,  0.00, 
 02/10/02, 22:00,  11.3,  93,  14.8,  14.9,  15.3,   0.0,  0.00, 
 02/10/02, 23:00,  11.4,  88,  14.5,  14.9,  15.3,   0.0,  0.00, 
 02/10/03, 00:00,  11.1,  91,  14.3,  14.9,  15.3,   0.0,  0.00, 
 02/10/03, 01:00,  11.3,  90,  14.1,  14.8,  15.3,   0.0,  0.00, 
 02/10/03, 02:00,  10.4,  94,  13.9,  14.8,  15.3,   0.0,  0.00, 
 02/10/03, 03:00,  10.3,  93,  13.8,  14.7,  15.3,   0.0,  0.00, 
 02/10/03, 04:00,   9.7,  96,  13.6,  14.7,  15.3,   0.0,  0.00, 
 02/10/03, 05:00,   9.2,  98,  13.5,  14.6,  15.3,   0.0,  0.00, 
 02/10/03, 06:00,   8.3,  98,  13.2,  14.5,  15.3,   0.0,  0.00, 
 02/10/03, 07:00,   8.4,  89,  13.1,  14.5,  15.3,   0.0,  0.15, 
 02/10/03, 08:00,  11.9,  76,  12.9,  14.4,  15.3,   0.0,  1.04, 
 02/10/03, 09:00,  14.8,  52,  12.8,  14.3,  15.3,   0.0,  1.78, 
 02/10/03, 10:00,  16.7,  47,  13.0,  14.2,  15.3,   0.0,  2.34, 
 02/10/03, 11:00,  18.2,  48,  13.6,  14.2,  15.4,   0.0,  2.75, 
 02/10/03, 12:00,  18.8,  54,  14.8,  14.2,  15.4,   0.0,  2.91, 
 02/10/03, 13:00,  18.7,  57,  15.9,  14.2,  15.3,   0.0,  2.79, 
 02/10/03, 14:00,  18.0,  59,  16.8,  14.4,  15.3,   0.0,  2.48, 
 02/10/03, 15:00,  17.3,  57,  16.9,  14.5,  15.3,   0.0,  1.99, 
 02/10/03, 16:00,  15.8,  59,  16.9,  14.8,  15.3,   0.0,  1.25, 
 02/10/03, 17:00,  14.0,  68,  16.6,  14.9,  15.3,   0.0,  0.49, 
 02/10/03, 18:00,  12.1,  77,  16.4,  15.2,  15.3,   0.0,  0.03, 
 02/10/03, 19:00,  12.3,  71,  16.1,  15.2,  15.3,   0.0,  0.00, 
 02/10/03, 20:00,  12.3,  72,  15.7,  15.3,  15.3,   0.0,  0.00, 
 02/10/03, 21:00,  12.5,  76,  15.3,  15.3,  15.3,   0.0,  0.00, 
 02/10/03, 22:00,  12.1,  82,  15.0,  15.3,  15.3,   0.0,  0.00, 
 02/10/03, 23:00,  11.1,  87,  14.8,  15.2,  15.3,   0.0,  0.00, 
 02/10/04, 00:00,  11.7,  83,  14.6,  15.2,  15.3,   0.0,  0.00, 
 02/10/04, 01:00,  11.6,  86,  14.4,  15.1,  15.3,   0.0,  0.00, 
 02/10/04, 02:00,  11.7,  86,  14.2,  15.1,  15.4,   0.0,  0.00, 
 02/10/04, 03:00,  11.7,  87,  14.0,  15.0,  15.3,   0.0,  0.00, 
 02/10/04, 04:00,  11.5,  90,  13.8,  14.9,  15.4,   0.0,  0.00, 
 02/10/04, 05:00,  11.2,  93,  13.7,  14.8,  15.3,   0.0,  0.00, 
 02/10/04, 06:00,  10.8,  94,  13.5,  14.8,  15.3,   0.0,  0.00, 
 02/10/04, 07:00,  11.7,  89,  13.5,  14.7,  15.4,   0.0,  0.16, 
 02/10/04, 08:00,  14.3,  77,  13.4,  14.6,  15.3,   0.0,  0.75, 
 02/10/04, 09:00,  15.3,  68,  13.5,  14.5,  15.4,   0.0,  1.08, 
 02/10/04, 10:00,  17.4,  62,  13.6,  14.5,  15.4,   0.0,  1.90, 
 02/10/04, 11:00,  17.1,  68,  14.3,  14.4,  15.3,   0.0,  2.37, 
 02/10/04, 12:00,  18.2,  60,  15.2,  14.4,  15.4,   0.0,  2.32, 
 02/10/04, 13:00,  19.3,  63,  16.0,  14.5,  15.4,   0.0,  2.37, 
 02/10/04, 14:00,  18.7,  59,  16.7,  14.6,  15.4,   0.0,  2.23, 
 02/10/04, 15:00,  17.3,  61,  17.0,  14.8,  15.4,   0.0,  1.62, 
 02/10/04, 16:00,  16.4,  64,  17.0,  15.1,  15.4,   0.0,  1.08, 
 02/10/04, 17:00,  14.9,  71,  16.8,  15.1,  15.4,   0.0,  0.33, 
 02/10/04, 18:00,  12.7,  84,  16.6,  15.3,  15.4,   0.0,  0.01, 
 02/10/04, 19:00,  12.0,  88,  16.4,  15.4,  15.4,   0.0,  0.00, 
 02/10/04, 20:00,  12.5,  83,  16.0,  15.4,  15.4,   0.0,  0.00, 
 02/10/04, 21:00,  13.7,  75,  15.7,  15.5,  15.4,   0.0,  0.00, 
 02/10/04, 22:00,  12.5,  78,  15.4,  15.5,  15.4,   0.0,  0.00, 
 02/10/04, 23:00,  10.6,  90,  15.2,  15.4,  15.3,   0.0,  0.00, 
 02/10/05, 00:00,  11.2,  86,  14.9,  15.4,  15.4,   0.0,  0.00, 
 02/10/05, 01:00,  11.1,  87,  14.7,  15.3,  15.4,   0.0,  0.00, 
 02/10/05, 02:00,  11.4,  87,  14.5,  15.3,  15.4,   0.0,  0.00, 
 02/10/05, 03:00,  12.6,  81,  14.4,  15.2,  15.3,   0.0,  0.00, 
 02/10/05, 04:00,  11.6,  98,  14.4,  15.1,  15.3,   0.0,  0.00, 
 02/10/05, 05:00,  10.1,  96,  14.2,  15.1,  15.4,   0.0,  0.00, 
 02/10/05, 06:00,  11.4,  96,  14.1,  15.0,  15.4,   0.0,  0.00, 
 02/10/05, 07:00,  11.4,  99,  13.9,  15.0,  15.4,   0.0,  0.16, 
 02/10/05, 08:00,  14.7,  90,  13.8,  14.9,  15.4,   0.0,  0.87, 
 02/10/05, 09:00,  16.1,  69,  13.9,  14.8,  15.5,   0.0,  1.59, 
 02/10/05, 10:00,  15.8,  71,  14.1,  14.8,  15.5,   0.0,  1.75, 
 02/10/05, 11:00,  16.5,  66,  14.6,  14.8,  15.5,   0.0,  1.65, 
 02/10/05, 12:00,  17.3,  64,  15.2,  14.8,  15.5,   0.0,  2.61, 
 02/10/05, 13:00,  18.1,  47,  16.1,  14.8,  15.5,   0.0,  2.46, 
 02/10/05, 14:00,  18.3,  50,  16.9,  14.9,  15.4,   0.0,  2.40, 
 02/10/05, 15:00,  18.1,  55,  17.1,  15.1,  15.4,   0.0,  1.83, 
 02/10/05, 16:00,  16.5,  65,  17.1,  15.3,  15.4,   0.0,  1.18, 
 02/10/05, 17:00,  15.5,  71,  16.9,  15.4,  15.4,   0.0,  0.46, 
 02/10/05, 18:00,  12.2,  88,  16.6,  15.5,  15.4,   0.0,  0.01, 
 02/10/05, 19:00,  11.7,  88,  16.3,  15.6,  15.4,   0.0,  0.00, 
 02/10/05, 20:00,  13.3,  73,  16.0,  15.6,  15.4,   0.0,  0.00, 
 02/10/05, 21:00,  12.3,  80,  15.6,  15.6,  15.4,   0.0,  0.00, 
 02/10/05, 22:00,  11.2,  89,  15.3,  15.6,  15.4,   0.0,  0.00, 
 02/10/05, 23:00,  13.1,  80,  15.1,  15.5,  15.4,   0.0,  0.00, 
 02/10/06, 00:00,  10.2,  94,  14.7,  15.5,  15.5,   0.0,  0.00, 
 02/10/06, 01:00,  11.7,  84,  14.5,  15.4,  15.5,   0.0,  0.00, 
 02/10/06, 02:00,  10.2,  92,  14.4,  15.3,  15.5,   0.0,  0.00, 
 02/10/06, 03:00,  10.0,  89,  14.1,  15.2,  15.5,   0.0,  0.00, 
 02/10/06, 04:00,  11.4,  70,  13.9,  15.1,  15.5,   0.0,  0.00, 
 02/10/06, 05:00,  10.5,  74,  13.7,  15.1,  15.5,   0.0,  0.00, 
 02/10/06, 06:00,  11.0,  75,  13.5,  15.0,  15.5,   0.0,  0.00, 
 02/10/06, 07:00,  13.6,  74,  13.4,  14.9,  15.4,   0.0,  0.20, 
 02/10/06, 08:00,  14.7,  73,  13.4,  14.8,  15.5,   0.0,  0.86, 
 02/10/06, 09:00,  16.6,  68,  13.5,  14.7,  15.5,   0.0,  1.49, 
 02/10/06, 10:00,  15.8,  72,  13.7,  14.6,  15.5,   0.0,  1.41, 
 02/10/06, 11:00,  15.3,  84,  14.2,  14.6,  15.5,   0.0,  1.03, 
 02/10/06, 12:00,  14.8,  87,  14.5,  14.5,  15.5,   0.0,  0.59, 
 02/10/06, 13:00,  17.3,  77,  14.9,  14.6,  15.5,   0.0,  1.68, 
 02/10/06, 14:00,  16.5,  70,  15.3,  14.6,  15.5,   0.0,  1.43, 
 02/10/06, 15:00,  15.7,  65,  15.6,  14.8,  15.5,   0.0,  0.49, 
 02/10/06, 16:00,  15.8,  63,  15.7,  14.8,  15.4,   0.0,  0.67, 
 02/10/06, 17:00,  15.2,  64,  15.7,  14.9,  15.4,   0.0,  0.13, 
 02/10/06, 18:00,  15.0,  61,  15.6,  15.0,  15.4,   0.0,  0.00, 
 02/10/06, 19:00,  13.1,  79,  15.4,  15.0,  15.4,   0.0,  0.00, 
 02/10/06, 20:00,  12.8,  81,  15.3,  15.2,  15.4,   0.0,  0.00, 
 02/10/06, 21:00,  12.5,  82,  15.2,  15.2,  15.4,   0.0,  0.00, 
 02/10/06, 22:00,  11.4,  90,  14.9,  15.1,  15.4,   0.0,  0.00, 
 02/10/06, 23:00,  13.3,  80,  14.8,  15.1,  15.4,   0.0,  0.00, 
 02/10/07, 00:00,  13.5,  94,  14.7,  15.1,  15.4,   0.0,  0.00, 
 02/10/07, 01:00,  14.5,  95,  14.6,  15.0,  15.4,   0.0,  0.00, 
 02/10/07, 02:00,  14.9,  99,  14.5,  15.0,  15.4,   0.0,  0.00, 
 02/10/07, 03:00,  15.2,  99,  14.5,  15.0,  15.4,   0.0,  0.00, 
 02/10/07, 04:00,  13.2,  99,  14.4,  14.9,  15.4,  19.5,  0.00, 
 02/10/07, 05:00,  13.1,  99,  14.4,  14.8,  15.4,   3.0,  0.00, 
 02/10/07, 06:00,  13.1,  99,  14.4,  14.8,  15.4,   3.0,  0.00, 
 02/10/07, 07:00,  12.7,  99,  14.2,  14.7,  15.3,   1.0,  0.00, 
 02/10/07, 08:00,  13.1,  99,  14.2,  14.7,  15.3,   2.5,  0.11, 
 02/10/07, 09:00,  12.8,  99,  14.3,  14.7,  15.3,   2.5,  0.19, 
 02/10/07, 10:00,  13.6,  99,  14.4,  14.6,  15.3,   0.5,  0.70, 
 02/10/07, 11:00,  13.4,  99,  14.5,  14.6,  15.3,   0.0,  0.93, 
 02/10/07, 12:00,  13.6,  98,  14.8,  14.6,  15.3,   0.0,  0.81, 
 02/10/07, 13:00,  14.3,  94,  15.0,  14.6,  15.3,   0.5,  1.19, 
 02/10/07, 14:00,  13.6,  94,  15.3,  14.7,  15.3,   0.0,  0.56, 
 02/10/07, 15:00,  12.8,  93,  15.5,  14.8,  15.3,   0.0,  0.63, 
 02/10/07, 16:00,  12.2,  87,  15.6,  14.8,  15.3,   0.0,  0.53, 
 02/10/07, 17:00,  11.0,  86,  15.6,  14.9,  15.3,   0.0,  0.15, 
 02/10/07, 18:00,   9.8,  94,  15.4,  14.9,  15.3,   0.0,  0.00, 
 02/10/07, 19:00,   9.4,  93,  15.1,  15.0,  15.3,   0.0,  0.00, 
 02/10/07, 20:00,   9.0,  90,  14.9,  15.0,  15.3,   0.0,  0.00, 
 02/10/07, 21:00,   7.8,  96,  14.7,  15.0,  15.3,   0.0,  0.00, 
 02/10/07, 22:00,   7.8,  98,  14.4,  15.0,  15.3,   0.0,  0.00, 
 02/10/07, 23:00,   9.0,  68,  14.3,  14.9,  15.3,   0.0,  0.00, 
 02/10/08, 00:00,   7.9,  78,  14.0,  14.9,  15.3,   0.0,  0.00, 
 02/10/08, 01:00,   7.3,  84,  13.8,  14.8,  15.3,   0.0,  0.00, 
 02/10/08, 02:00,   7.0,  91,  13.6,  14.8,  15.3,   0.0,  0.00, 
 02/10/08, 03:00,   7.6,  88,  13.5,  14.7,  15.3,   0.0,  0.00, 
 02/10/08, 04:00,   7.2,  88,  13.3,  14.6,  15.3,   0.0,  0.00, 
 02/10/08, 05:00,   7.6,  83,  13.1,  14.5,  15.3,   0.0,  0.00, 
 02/10/08, 06:00,   8.8,  69,  13.0,  14.4,  15.3,   0.0,  0.00, 
 02/10/08, 07:00,   9.2,  76,  12.9,  14.4,  15.3,   0.0,  0.15, 
 02/10/08, 08:00,   9.1,  85,  12.8,  14.3,  15.2,   0.0,  0.22, 
 02/10/08, 09:00,  10.4,  80,  12.9,  14.2,  15.3,   0.0,  0.42, 
 02/10/08, 10:00,  10.3,  90,  13.0,  14.2,  15.3,   0.0,  0.43, 
 02/10/08, 11:00,  10.0,  91,  13.2,  14.1,  15.3,   0.0,  0.37, 
 02/10/08, 12:00,   8.8,  90,  13.2,  14.1,  15.3,   0.0,  0.30, 
 02/10/08, 13:00,   7.8,  95,  13.2,  14.0,  15.2,   0.0,  0.38, 
 02/10/08, 14:00,   7.8,  96,  13.2,  14.0,  15.2,   0.5,  0.32, 
 02/10/08, 15:00,   7.8,  98,  13.2,  14.0,  15.2,   0.5,  0.23, 
 02/10/08, 16:00,   7.8,  99,  13.2,  14.0,  15.2,   0.5,  0.08, 
 02/10/08, 17:00,   7.4,  99,  13.1,  14.0,  15.2,   1.0,  0.00, 
 02/10/08, 18:00,   7.6,  99,  13.0,  14.0,  15.1,   0.0,  0.00, 
 02/10/08, 19:00,   7.4,  99,  12.9,  13.9,  15.2,   0.0,  0.00, 
 02/10/08, 20:00,   7.4,  99,  12.8,  13.9,  15.0,   0.5,  0.00, 
 02/10/08, 21:00,   7.3,  98,  12.6,  13.9,  15.0,   0.0,  0.00, 
 02/10/08, 22:00,   7.3,  99,  12.5,  13.8,  15.0,   0.0,  0.00, 
 02/10/08, 23:00,   7.4,  99,  12.5,  13.8,  15.0,   0.0,  0.00, 
 02/10/09, 00:00,   7.4,  99,  12.5,  13.8,  15.0,   0.0,  0.00, 
 02/10/09, 01:00,   7.1,  99,  12.4,  13.7,  15.0,   0.0,  0.00, 
 02/10/09, 02:00,   6.9,  99,  12.3,  13.7,  14.9,   0.5,  0.00, 
 02/10/09, 03:00,   7.0,  99,  12.3,  13.6,  14.9,   0.0,  0.00, 
 02/10/09, 04:00,   7.0,  99,  12.3,  13.6,  14.9,   0.0,  0.00, 
 02/10/09, 05:00,   7.3,  99,  12.2,  13.5,  15.0,   0.0,  0.00, 
 02/10/09, 06:00,   7.1,  99,  12.2,  13.5,  14.9,   0.0,  0.00, 
 02/10/09, 07:00,   6.9,  99,  12.0,  13.4,  14.9,   0.0,  0.08, 
 02/10/09, 08:00,   7.6,  99,  12.1,  13.5,  14.9,   0.0,  0.43, 
 02/10/09, 09:00,   8.4,  99,  12.1,  13.5,  14.9,   0.0,  1.03, 
 02/10/09, 10:00,   8.0,  99,  12.3,  13.4,  14.9,   0.0,  0.78, 
 02/10/09, 11:00,   8.9,  99,  12.5,  13.3,  14.8,   0.0,  0.76, 
 02/10/09, 12:00,   9.3,  99,  12.6,  13.3,  14.9,   0.0,  0.78, 
 02/10/09, 13:00,   9.9,  93,  12.9,  13.4,  14.9,   0.0,  0.83, 
 02/10/09, 14:00,  11.2,  84,  13.2,  13.3,  14.7,   0.0,  2.15, 
 02/10/09, 15:00,  11.6,  86,  13.6,  13.5,  14.8,   0.0,  2.05, 
 02/10/09, 16:00,   9.8,  96,  13.9,  13.5,  14.8,   0.0,  1.05, 
 02/10/09, 17:00,   8.3,  99,  14.1,  13.6,  14.8,   0.0,  0.12, 
 02/10/09, 18:00,   7.4,  99,  14.0,  13.6,  14.7,   0.0,  0.00, 
 02/10/09, 19:00,   7.1,  99,  13.9,  13.7,  14.8,   0.0,  0.00, 
 02/10/09, 20:00,   6.7,  99,  13.7,  13.8,  14.7,   0.0,  0.00, 
 02/10/09, 21:00,   6.3,  99,  13.5,  13.8,  14.6,   0.0,  0.00, 
 02/10/09, 22:00,   6.6,  99,  13.3,  13.8,  14.6,   0.0,  0.00, 
 02/10/09, 23:00,   6.7,  97,  13.1,  13.8,  14.6,   0.0,  0.00, 
 02/10/10, 00:00,   5.1,  99,  13.0,  13.8,  14.6,   0.0,  0.00, 
 02/10/10, 01:00,   4.7,  99,  12.7,  13.7,  14.6,   0.0,  0.00, 
 02/10/10, 02:00,   5.5,  99,  12.5,  13.7,  14.6,   0.0,  0.00, 
 02/10/10, 03:00,   5.1,  99,  12.4,  13.6,  14.6,   0.0,  0.00, 
 02/10/10, 04:00,   5.1,  99,  12.2,  13.6,  14.6,   0.0,  0.00, 
 02/10/10, 05:00,   5.1,  99,  12.1,  13.5,  14.6,   0.0,  0.00, 
 02/10/10, 06:00,   4.0,  99,  11.9,  13.5,  14.6,   0.0,  0.00, 
 02/10/10, 07:00,   5.0,  99,  11.8,  13.4,  14.6,   0.0,  0.13, 
 02/10/10, 08:00,   7.2,  87,  11.7,  13.4,  14.6,   0.0,  0.98, 
 02/10/10, 09:00,   8.1,  78,  11.6,  13.3,  14.7,   0.0,  1.71, 
 02/10/10, 10:00,  10.1,  71,  11.6,  13.3,  14.7,   0.0,  2.28, 
 02/10/10, 11:00,  10.8,  69,  12.2,  13.2,  14.7,   0.0,  2.38, 
 02/10/10, 12:00,  11.3,  62,  13.1,  13.2,  14.7,   0.0,  2.09, 
 02/10/10, 13:00,  11.2,  61,  13.8,  13.2,  14.6,   0.0,  2.71, 
 02/10/10, 14:00,  10.8,  67,  14.5,  13.3,  14.6,   0.0,  2.21, 
 02/10/10, 15:00,  10.4,  68,  14.7,  13.4,  14.6,   0.0,  1.38, 
 02/10/10, 16:00,   9.4,  72,  14.6,  13.6,  14.6,   0.0,  1.37, 
 02/10/10, 17:00,   7.5,  80,  14.4,  13.6,  14.5,   0.0,  0.49, 
 02/10/10, 18:00,   6.0,  85,  14.1,  13.7,  14.5,   0.0,  0.00, 
 02/10/10, 19:00,   3.9,  95,  13.7,  13.8,  14.5,   0.0,  0.00, 
 02/10/10, 20:00,   4.1,  96,  13.3,  13.8,  14.5,   0.0,  0.00, 
 02/10/10, 21:00,   3.0,  98,  12.9,  13.8,  14.5,   0.0,  0.00, 
 02/10/10, 22:00,   2.9,  98,  12.6,  13.7,  14.5,   0.0,  0.00, 
 02/10/10, 23:00,   2.8,  99,  12.2,  13.7,  14.5,   0.0,  0.00, 
 02/10/11, 00:00,   3.1,  97,  11.9,  13.6,  14.5,   0.0,  0.00, 
 02/10/11, 01:00,   4.8,  92,  11.6,  13.5,  14.5,   0.0,  0.00, 
 02/10/11, 02:00,   6.9,  81,  11.4,  13.4,  14.5,   0.0,  0.00, 
 02/10/11, 03:00,   5.8,  86,  11.2,  13.3,  14.5,   0.0,  0.00, 
 02/10/11, 04:00,   6.4,  84,  11.0,  13.2,  14.5,   0.0,  0.00, 
 02/10/11, 05:00,   6.1,  89,  10.9,  13.0,  14.5,   0.0,  0.00, 
 02/10/11, 06:00,   7.0,  85,  10.7,  12.9,  14.5,   0.0,  0.00, 
 02/10/11, 07:00,   8.8,  82,  10.6,  12.8,  14.5,   0.0,  0.19, 
 02/10/11, 08:00,  10.3,  74,  10.5,  12.7,  14.5,   0.0,  0.68, 
 02/10/11, 09:00,  11.4,  76,  10.7,  12.6,  14.5,   0.0,  1.15, 
 02/10/11, 10:00,  11.0,  80,  11.0,  12.6,  14.5,   0.0,  1.57, 
 02/10/11, 11:00,  12.2,  78,  11.5,  12.5,  14.4,   0.0,  1.74, 
 02/10/11, 12:00,  13.4,  68,  12.3,  12.5,  14.4,   0.0,  2.47, 
 02/10/11, 13:00,  15.6,  61,  13.2,  12.5,  14.4,   0.0,  2.55, 
 02/10/11, 14:00,  13.8,  63,  13.9,  12.6,  14.4,   0.0,  1.74, 
 02/10/11, 15:00,  13.4,  63,  14.2,  12.8,  14.4,   0.0,  1.63, 
 02/10/11, 16:00,  12.5,  69,  14.2,  12.9,  14.3,   0.0,  0.91, 
 02/10/11, 17:00,  11.5,  72,  14.1,  13.2,  14.3,   0.0,  0.44, 
 02/10/11, 18:00,   8.8,  88,  13.9,  13.3,  14.3,   0.0,  0.00, 
 02/10/11, 19:00,   8.7,  82,  13.6,  13.4,  14.3,   0.0,  0.00, 
 02/10/11, 20:00,   8.9,  82,  13.4,  13.5,  14.3,   0.0,  0.00, 
 02/10/11, 21:00,   7.8,  89,  13.0,  13.5,  14.3,   0.0,  0.00, 
 02/10/11, 22:00,   6.8,  94,  12.7,  13.5,  14.3,   0.0,  0.00, 
 02/10/11, 23:00,   7.6,  97,  12.4,  13.4,  14.3,   0.0,  0.00, 
 02/10/12, 00:00,   6.9,  98,  12.2,  13.4,  14.3,   0.0,  0.00, 
 02/10/12, 01:00,   7.6,  94,  12.0,  13.3,  14.3,   0.0,  0.00, 
 02/10/12, 02:00,   7.1,  94,  11.8,  13.2,  14.3,   0.0,  0.00, 
 02/10/12, 03:00,   5.6,  98,  11.6,  13.1,  14.2,   0.0,  0.00, 
 02/10/12, 04:00,   5.3,  99,  11.4,  13.0,  14.2,   0.0,  0.00, 
 02/10/12, 05:00,   5.4,  99,  11.3,  13.0,  14.2,   0.0,  0.00, 
 02/10/12, 06:00,   5.0,  99,  11.1,  12.9,  14.2,   0.0,  0.00, 
 02/10/12, 07:00,   5.8,  99,  11.0,  12.8,  14.2,   0.0,  0.17, 
 02/10/12, 08:00,   8.9,  85,  10.9,  12.7,  14.2,   0.0,  0.92, 
 02/10/12, 09:00,  10.3,  83,  10.8,  12.6,  14.2,   0.0,  1.59, 
 02/10/12, 10:00,  12.1,  79,  11.0,  12.6,  14.2,   0.0,  2.18, 
 02/10/12, 11:00,  13.3,  75,  11.5,  12.5,  14.2,   0.0,  2.52, 
 02/10/12, 12:00,  13.5,  67,  12.5,  12.5,  14.2,   0.0,  2.65, 
 02/10/12, 13:00,  14.4,  64,  13.7,  12.5,  14.2,   0.0,  2.61, 
 02/10/12, 14:00,  15.3,  61,  14.5,  12.6,  14.2,   0.0,  2.28, 
 02/10/12, 15:00,  14.8,  67,  14.9,  12.9,  14.1,   0.0,  1.72, 
 02/10/12, 16:00,  14.0,  74,  14.8,  13.1,  14.1,   0.0,  1.04, 
 02/10/12, 17:00,  13.0,  79,  14.6,  13.3,  14.1,   0.0,  0.41, 
 02/10/12, 18:00,  10.7,  91,  14.4,  13.4,  14.1,   0.0,  0.00, 
 02/10/12, 19:00,   9.3,  97,  14.2,  13.5,  14.1,   0.0,  0.00, 
 02/10/12, 20:00,   9.0,  98,  13.8,  13.5,  14.1,   0.0,  0.00, 
 02/10/12, 21:00,   8.4,  99,  13.6,  13.6,  14.1,   0.0,  0.00, 
 02/10/12, 22:00,   8.2,  99,  13.3,  13.5,  14.1,   0.0,  0.00, 
 02/10/12, 23:00,   7.9,  98,  13.0,  13.6,  14.1,   0.0,  0.00, 
 02/10/13, 00:00,   7.2,  99,  12.6,  13.6,  14.1,   0.0,  0.00, 
 02/10/13, 01:00,   7.0,  99,  12.4,  13.5,  14.1,   0.0,  0.00, 
 02/10/13, 02:00,   7.7,  99,  12.2,  13.4,  14.1,   0.0,  0.00, 
 02/10/13, 03:00,   7.5,  99,  12.0,  13.4,  14.1,   0.0,  0.00, 
 02/10/13, 04:00,   8.3,  93,  11.8,  13.3,  14.1,   0.0,  0.00, 
 02/10/13, 05:00,   7.7,  89,  11.6,  13.2,  14.1,   0.0,  0.00, 
 02/10/13, 06:00,   9.5,  71,  11.4,  13.1,  14.1,   0.0,  0.00, 
 02/10/13, 07:00,   8.7,  89,  11.3,  13.1,  14.1,   0.0,  0.16, 
 02/10/13, 08:00,  12.0,  75,  11.2,  13.0,  14.1,   0.0,  0.93, 
 02/10/13, 09:00,  13.7,  60,  11.2,  12.9,  14.1,   0.0,  1.65, 
 02/10/13, 10:00,  14.0,  72,  11.4,  12.7,  14.1,   0.0,  2.22, 
 02/10/13, 11:00,  15.4,  50,  12.0,  12.7,  14.1,   0.0,  2.57, 
 02/10/13, 12:00,  15.5,  58,  13.2,  12.6,  14.1,   0.0,  2.70, 
 02/10/13, 13:00,  15.9,  56,  14.3,  12.7,  14.1,   0.0,  2.62, 
 02/10/13, 14:00,  16.3,  44,  15.1,  12.9,  14.1,   0.0,  2.27, 
 02/10/13, 15:00,  14.9,  57,  15.4,  13.1,  14.2,   0.0,  1.73, 
 02/10/13, 16:00,  14.6,  62,  15.2,  13.3,  14.1,   0.0,  1.04, 
 02/10/13, 17:00,  12.7,  76,  15.0,  13.5,  14.0,   0.0,  0.40, 
 02/10/13, 18:00,  10.6,  87,  14.7,  13.6,  14.0,   0.0,  0.00, 
 02/10/13, 19:00,  10.8,  85,  14.3,  13.7,  14.0,   0.0,  0.00, 
 02/10/13, 20:00,  10.9,  75,  14.0,  13.8,  14.0,   0.0,  0.00, 
 02/10/13, 21:00,   8.3,  93,  13.7,  13.8,  14.0,   0.0,  0.00, 
 02/10/13, 22:00,   8.6,  93,  13.4,  13.8,  14.0,   0.0,  0.00, 
 02/10/13, 23:00,   8.9,  86,  13.1,  13.7,  14.0,   0.0,  0.00, 
 02/10/14, 00:00,   8.5,  88,  12.9,  13.6,  14.0,   0.0,  0.00, 
 02/10/14, 01:00,   8.4,  88,  12.5,  13.6,  14.1,   0.0,  0.00, 
 02/10/14, 02:00,   8.4,  92,  12.3,  13.6,  14.1,   0.0,  0.00, 
 02/10/14, 03:00,   8.3,  95,  12.2,  13.5,  14.1,   0.0,  0.00, 
 02/10/14, 04:00,   9.6,  86,  12.0,  13.4,  14.1,   0.0,  0.00, 
 02/10/14, 05:00,   9.1,  89,  11.8,  13.3,  14.1,   0.0,  0.00, 
 02/10/14, 06:00,   9.1,  93,  11.7,  13.3,  14.1,   0.0,  0.00, 
 02/10/14, 07:00,   9.6,  96,  11.6,  13.2,  14.1,   0.0,  0.05, 
 02/10/14, 08:00,  11.3,  89,  11.5,  13.1,  14.1,   0.0,  0.52, 
 02/10/14, 09:00,  13.6,  79,  11.7,  13.0,  14.1,   0.0,  1.64, 
 02/10/14, 10:00,  13.4,  82,  12.0,  13.0,  14.1,   0.0,  2.31, 
 02/10/14, 11:00,  13.5,  82,  12.5,  12.9,  14.1,   0.0,  1.43, 
 02/10/14, 12:00,  14.0,  76,  13.2,  12.9,  14.1,   0.0,  1.04, 
 02/10/14, 13:00,  14.5,  74,  13.5,  13.0,  14.1,   0.0,  1.21, 
 02/10/14, 14:00,  16.4,  66,  13.9,  13.1,  14.0,   0.0,  1.92, 
 02/10/14, 15:00,  14.9,  71,  14.3,  13.2,  14.0,   0.0,  1.96, 
 02/10/14, 16:00,  14.2,  71,  14.4,  13.3,  14.0,   0.0,  1.02, 
 02/10/14, 17:00,  13.1,  71,  14.3,  13.4,  14.0,   0.0,  0.27, 
 02/10/14, 18:00,   9.9,  91,  14.2,  13.5,  14.0,   0.0,  0.00, 
 02/10/14, 19:00,   9.3,  96,  13.9,  13.6,  14.0,   0.0,  0.00, 
 02/10/14, 20:00,   9.1,  96,  13.6,  13.6,  14.0,   0.0,  0.00, 
 02/10/14, 21:00,   9.3,  96,  13.3,  13.6,  14.0,   0.0,  0.00, 
 02/10/14, 22:00,  11.0,  88,  13.1,  13.6,  14.0,   0.0,  0.00, 
 02/10/14, 23:00,  10.7,  88,  12.9,  13.6,  14.0,   0.0,  0.00, 
 02/10/15, 00:00,  11.4,  83,  12.6,  13.5,  14.0,   0.0,  0.00, 
 02/10/15, 01:00,  10.5,  90,  12.4,  13.5,  14.0,   0.0,  0.00, 
 02/10/15, 02:00,   9.2,  93,  12.3,  13.4,  14.0,   0.0,  0.00, 
 02/10/15, 03:00,   9.7,  87,  12.1,  13.4,  14.0,   0.0,  0.00, 
 02/10/15, 04:00,  10.2,  81,  12.0,  13.3,  14.0,   0.0,  0.00, 
 02/10/15, 05:00,   9.3,  85,  11.9,  13.2,  14.0,   0.0,  0.00, 
 02/10/15, 06:00,   9.8,  73,  11.7,  13.2,  14.0,   0.0,  0.00, 
 02/10/15, 07:00,  11.3,  68,  11.6,  13.1,  14.0,   0.0,  0.15, 
 02/10/15, 08:00,  11.9,  71,  11.5,  13.0,  14.0,   0.0,  0.63, 
 02/10/15, 09:00,  14.0,  72,  11.6,  13.0,  14.0,   0.0,  1.30, 
 02/10/15, 10:00,  15.0,  62,  11.7,  12.9,  14.0,   0.0,  2.02, 
 02/10/15, 11:00,  15.9,  62,  12.4,  12.9,  14.0,   0.0,  2.51, 
 02/10/15, 12:00,  16.5,  60,  13.3,  12.9,  14.0,   0.0,  2.55, 
 02/10/15, 13:00,  16.3,  57,  14.2,  12.9,  14.0,   0.0,  2.17, 
 02/10/15, 14:00,  15.7,  60,  14.8,  13.0,  14.0,   0.0,  1.87, 
 02/10/15, 15:00,  15.8,  64,  15.1,  13.2,  14.0,   0.0,  1.53, 
 02/10/15, 16:00,  14.5,  65,  15.2,  13.4,  14.0,   0.0,  0.66, 
 02/10/15, 17:00,  13.9,  65,  15.0,  13.5,  14.0,   0.0,  0.17, 
 02/10/15, 18:00,  13.1,  69,  14.6,  13.6,  14.0,   0.0,  0.00, 
 02/10/15, 19:00,  10.0,  99,  14.4,  13.7,  13.9,   0.0,  0.00, 
 02/10/15, 20:00,   9.9,  99,  13.9,  13.7,  13.9,   0.0,  0.00, 
 02/10/15, 21:00,  10.1,  99,  13.8,  13.8,  14.0,   0.0,  0.00, 
 02/10/15, 22:00,   8.4,  99,  13.5,  13.7,  14.0,   1.5,  0.00, 
 02/10/15, 23:00,   7.9,  98,  13.3,  13.7,  14.0,   0.0,  0.00, 
 02/10/16, 00:00,   7.9,  99,  13.1,  13.7,  14.0,   0.0,  0.00, 
 02/10/16, 01:00,   7.5,  99,  13.0,  13.6,  14.0,   0.0,  0.00, 